,,,PA_Meas_PMT16A,,PR_Meas_QMR101_102,,RH_Meas_QMH101,,SR_Meas_QMS101,,TA_Meas_QMH101,,GenWind,,GenWind,
date,time,status,PA,status,PR,status,RH,status,SR,status,TA,status,DirAvg,status,SpdAvg,
2009-11-05, 00:00:05,VALID,1007.42,VALID,0,VALID,86.537,VALID,0.105969,VALID,23.9065,VALID,311,VALID,0.142578,
2009-11-05, 00:01:05,VALID,1007.36,VALID,0,VALID,86.5447,VALID,0,VALID,23.9084,VALID,311,VALID,0,
2009-11-05, 00:02:05,VALID,1007.35,VALID,0,VALID,86.5294,VALID,0,VALID,23.8889,VALID,311,VALID,0,
2009-11-05, 00:03:05,VALID,1007.33,VALID,0,VALID,86.5523,VALID,0,VALID,23.8889,VALID,311,VALID,0.025,
2009-11-05, 00:04:05,VALID,1007.3,VALID,0,VALID,86.5294,VALID,0.105969,VALID,23.8694,VALID,311,VALID,0.391016,
2009-11-05, 00:05:05,VALID,1007.29,VALID,0,VALID,86.5523,VALID,0,VALID,23.8694,VALID,311,VALID,0.380469,
2009-11-05, 00:06:05,VALID,1007.27,VALID,0,VALID,86.5523,VALID,0.105969,VALID,23.8481,VALID,311,VALID,0.24375,
2009-11-05, 00:07:05,VALID,1007.26,VALID,0,VALID,86.5599,VALID,0,VALID,23.8286,VALID,311,VALID,0.238672,
2009-11-05, 00:08:05,VALID,1007.24,VALID,0,VALID,86.5599,VALID,0,VALID,23.8304,VALID,311,VALID,0.133203,
2009-11-05, 00:09:05,VALID,1007.26,VALID,0,VALID,86.5599,VALID,0,VALID,23.8304,VALID,311,VALID,0,
2009-11-05, 00:10:05,VALID,1007.25,VALID,0,VALID,86.5447,VALID,0,VALID,23.8322,VALID,311,VALID,0,
2009-11-05, 00:11:05,VALID,1007.24,VALID,0,VALID,86.5523,VALID,0,VALID,23.8109,VALID,311,VALID,0,
2009-11-05, 00:12:05,VALID,1007.24,VALID,0,VALID,86.5523,VALID,0.105969,VALID,23.7914,VALID,311,VALID,0,
2009-11-05, 00:13:05,VALID,1007.2,VALID,0,VALID,86.5523,VALID,0.105969,VALID,23.7914,VALID,311,VALID,0,
2009-11-05, 00:14:05,VALID,1007.18,VALID,0,VALID,86.5676,VALID,0,VALID,23.7914,VALID,311,VALID,0,
2009-11-05, 00:15:05,VALID,1007.19,VALID,0,VALID,86.5676,VALID,0.105969,VALID,23.7914,VALID,311,VALID,0,
2009-11-05, 00:16:05,VALID,1007.22,VALID,0,VALID,86.537,VALID,0.105969,VALID,23.7914,VALID,310,VALID,0.0285156,
2009-11-05, 00:17:05,VALID,1007.23,VALID,0,VALID,86.5294,VALID,0.105969,VALID,23.8109,VALID,310,VALID,0,
2009-11-05, 00:18:05,VALID,1007.23,VALID,0,VALID,86.5294,VALID,0,VALID,23.8304,VALID,271,VALID,0.378125,
2009-11-05, 00:19:05,VALID,1007.26,VALID,0,VALID,86.5294,VALID,0,VALID,23.8286,VALID,218,VALID,0.296094,
2009-11-05, 00:20:05,VALID,1007.24,VALID,0,VALID,86.5447,VALID,0,VALID,23.8286,VALID,218,VALID,0.371484,
2009-11-05, 00:21:05,VALID,1007.24,VALID,0,VALID,86.537,VALID,0.105969,VALID,23.8481,VALID,218,VALID,0.181641,
2009-11-05, 00:22:05,VALID,1007.19,VALID,0,VALID,86.5294,VALID,0,VALID,23.8499,VALID,218,VALID,0.046875,
2009-11-05, 00:23:05,VALID,1007.19,VALID,0,VALID,86.537,VALID,0,VALID,23.8499,VALID,218,VALID,0,
2009-11-05, 00:24:05,VALID,1007.17,VALID,0,VALID,86.5676,VALID,0.105969,VALID,23.8286,VALID,218,VALID,0.175781,
2009-11-05, 00:25:05,VALID,1007.16,VALID,0,VALID,86.5599,VALID,0,VALID,23.8499,VALID,218,VALID,0.214844,
2009-11-05, 00:26:05,VALID,1007.17,VALID,0,VALID,86.5904,VALID,0.105969,VALID,23.8304,VALID,218,VALID,0.232812,
2009-11-05, 00:27:05,VALID,1007.17,VALID,0,VALID,86.6057,VALID,0,VALID,23.8304,VALID,218,VALID,0,
2009-11-05, 00:28:05,VALID,1007.17,VALID,0,VALID,86.5828,VALID,0.105969,VALID,23.8499,VALID,218,VALID,0.00351562,
2009-11-05, 00:29:05,VALID,1007.18,VALID,0,VALID,86.5981,VALID,0,VALID,23.8304,VALID,218,VALID,0.151562,
2009-11-05, 00:30:05,VALID,1007.17,VALID,0,VALID,86.5676,VALID,0.105969,VALID,23.8109,VALID,218,VALID,0,
2009-11-05, 00:31:05,VALID,1007.19,VALID,0,VALID,86.5904,VALID,0,VALID,23.7914,VALID,218,VALID,0,
2009-11-05, 00:32:05,VALID,1007.2,VALID,0,VALID,86.5904,VALID,0.105969,VALID,23.7914,VALID,218,VALID,0,
2009-11-05, 00:33:05,VALID,1007.22,VALID,0,VALID,86.5981,VALID,0.105969,VALID,23.772,VALID,218,VALID,0,
2009-11-05, 00:34:05,VALID,1007.25,VALID,0,VALID,86.6057,VALID,0.105969,VALID,23.7312,VALID,218,VALID,0,
2009-11-05, 00:35:05,VALID,1007.24,VALID,0,VALID,86.6133,VALID,0,VALID,23.733,VALID,218,VALID,0,
2009-11-05, 00:36:04,VALID,1007.27,VALID,0,VALID,86.5981,VALID,0.105969,VALID,23.7117,VALID,218,VALID,0,
2009-11-05, 00:37:04,VALID,1007.29,VALID,0,VALID,86.5828,VALID,0,VALID,23.7135,VALID,218,VALID,0,
2009-11-05, 00:38:04,VALID,1007.3,VALID,0,VALID,86.5752,VALID,0,VALID,23.694,VALID,218,VALID,0,
2009-11-05, 00:39:04,VALID,1007.3,VALID,0,VALID,86.5904,VALID,0,VALID,23.694,VALID,218,VALID,0,
2009-11-05, 00:40:04,VALID,1007.33,VALID,0,VALID,86.5676,VALID,0,VALID,23.694,VALID,218,VALID,0,
2009-11-05, 00:41:04,VALID,1007.36,VALID,0,VALID,86.5828,VALID,0,VALID,23.694,VALID,218,VALID,0,
2009-11-05, 00:42:04,VALID,1007.39,VALID,0,VALID,86.5752,VALID,0,VALID,23.694,VALID,218,VALID,0,
2009-11-05, 00:43:04,VALID,1007.37,VALID,0,VALID,86.5981,VALID,0.105969,VALID,23.694,VALID,218,VALID,0,
2009-11-05, 00:44:04,VALID,1007.37,VALID,0,VALID,86.6057,VALID,0,VALID,23.6727,VALID,218,VALID,0,
2009-11-05, 00:45:04,VALID,1007.38,VALID,0,VALID,86.5981,VALID,0,VALID,23.655,VALID,218,VALID,0,
2009-11-05, 00:46:04,VALID,1007.39,VALID,0,VALID,86.6209,VALID,0.105969,VALID,23.6356,VALID,218,VALID,0,
2009-11-05, 00:47:04,VALID,1007.39,VALID,0,VALID,86.6286,VALID,0,VALID,23.655,VALID,218,VALID,0,
2009-11-05, 00:48:04,VALID,1007.36,VALID,0,VALID,86.5904,VALID,0,VALID,23.6356,VALID,218,VALID,0,
2009-11-05, 00:49:04,VALID,1007.37,VALID,0,VALID,86.6057,VALID,0,VALID,23.6161,VALID,218,VALID,0,
2009-11-05, 00:50:04,VALID,1007.37,VALID,0,VALID,86.6286,VALID,0,VALID,23.6161,VALID,218,VALID,0,
2009-11-05, 00:51:04,VALID,1007.35,VALID,0,VALID,86.5981,VALID,0,VALID,23.6161,VALID,218,VALID,0,
2009-11-05, 00:52:04,VALID,1007.35,VALID,0,VALID,86.5828,VALID,0,VALID,23.6161,VALID,218,VALID,0,
2009-11-05, 00:53:04,VALID,1007.32,VALID,0,VALID,86.5828,VALID,0.105969,VALID,23.5753,VALID,218,VALID,0,
2009-11-05, 00:54:04,VALID,1007.26,VALID,0,VALID,86.5752,VALID,0,VALID,23.6356,VALID,218,VALID,0,
2009-11-05, 00:55:04,VALID,1007.27,VALID,0,VALID,86.5904,VALID,0,VALID,23.6356,VALID,218,VALID,0,
2009-11-05, 00:56:04,VALID,1007.27,VALID,0,VALID,86.5599,VALID,0,VALID,23.655,VALID,218,VALID,0,
2009-11-05, 00:57:04,VALID,1007.27,VALID,0,VALID,86.5828,VALID,0,VALID,23.6356,VALID,218,VALID,0,
2009-11-05, 00:58:04,VALID,1007.3,VALID,0,VALID,86.5828,VALID,0,VALID,23.6161,VALID,218,VALID,0,
2009-11-05, 00:59:04,VALID,1007.34,VALID,0,VALID,86.5904,VALID,0,VALID,23.6356,VALID,218,VALID,0,
2009-11-05, 01:00:04,VALID,1007.32,VALID,0,VALID,86.5752,VALID,0,VALID,23.6356,VALID,218,VALID,0,
2009-11-05, 01:01:04,VALID,1007.31,VALID,0,VALID,86.5904,VALID,0,VALID,23.6356,VALID,218,VALID,0,
2009-11-05, 01:02:04,VALID,1007.33,VALID,0,VALID,86.6209,VALID,0,VALID,23.5948,VALID,222,VALID,0,
2009-11-05, 01:03:04,VALID,1007.3,VALID,0,VALID,86.6286,VALID,0,VALID,23.6161,VALID,223,VALID,0,
2009-11-05, 01:04:04,VALID,1007.28,VALID,0,VALID,86.6209,VALID,0,VALID,23.5753,VALID,223,VALID,0,
2009-11-05, 01:05:04,VALID,1007.27,VALID,0,VALID,86.6286,VALID,0.105969,VALID,23.5966,VALID,223,VALID,0,
2009-11-05, 01:06:04,VALID,1007.26,VALID,0,VALID,86.6362,VALID,0,VALID,23.5771,VALID,223,VALID,0,
2009-11-05, 01:07:04,VALID,1007.23,VALID,0,VALID,86.6438,VALID,0,VALID,23.5576,VALID,107,VALID,0,
2009-11-05, 01:08:04,VALID,1007.24,VALID,0,VALID,86.6438,VALID,0,VALID,23.5576,VALID,107,VALID,0,
2009-11-05, 01:09:04,VALID,1007.22,VALID,0,VALID,86.6362,VALID,0,VALID,23.5381,VALID,107,VALID,0,
2009-11-05, 01:10:04,VALID,1007.21,VALID,0,VALID,86.6438,VALID,0,VALID,23.5186,VALID,107,VALID,0,
2009-11-05, 01:11:04,VALID,1007.18,VALID,0,VALID,86.6286,VALID,0,VALID,23.5169,VALID,107,VALID,0,
2009-11-05, 01:12:04,VALID,1007.19,VALID,0,VALID,86.6057,VALID,0,VALID,23.5381,VALID,107,VALID,0,
2009-11-05, 01:13:04,VALID,1007.19,VALID,0,VALID,86.6057,VALID,0,VALID,23.5381,VALID,107,VALID,0,
2009-11-05, 01:14:04,VALID,1007.19,VALID,0,VALID,86.6057,VALID,0,VALID,23.5186,VALID,107,VALID,0,
2009-11-05, 01:15:04,VALID,1007.17,VALID,0,VALID,86.6133,VALID,0,VALID,23.5186,VALID,107,VALID,0,
2009-11-05, 01:16:04,VALID,1007.17,VALID,0,VALID,86.6057,VALID,0,VALID,23.5186,VALID,107,VALID,0,
2009-11-05, 01:17:04,VALID,1007.18,VALID,0,VALID,86.6209,VALID,0,VALID,23.5381,VALID,107,VALID,0,
2009-11-05, 01:18:04,VALID,1007.14,VALID,0,VALID,86.6133,VALID,0,VALID,23.4974,VALID,107,VALID,0,
2009-11-05, 01:19:04,VALID,1007.14,VALID,0,VALID,86.6514,VALID,0.105969,VALID,23.4992,VALID,107,VALID,0,
2009-11-05, 01:20:04,VALID,1007.11,VALID,0,VALID,86.6591,VALID,0,VALID,23.4797,VALID,107,VALID,0,
2009-11-05, 01:21:04,VALID,1007.11,VALID,0,VALID,86.6286,VALID,0,VALID,23.4992,VALID,107,VALID,0,
2009-11-05, 01:22:04,VALID,1007.1,VALID,0,VALID,86.6438,VALID,0,VALID,23.4797,VALID,107,VALID,0,
2009-11-05, 01:23:04,VALID,1007.07,VALID,0,VALID,86.6514,VALID,0,VALID,23.4797,VALID,107,VALID,0,
2009-11-05, 01:24:04,VALID,1007.05,VALID,0,VALID,86.6438,VALID,0,VALID,23.4797,VALID,107,VALID,0,
2009-11-05, 01:25:04,VALID,1007.05,VALID,0,VALID,86.6514,VALID,0,VALID,23.4389,VALID,107,VALID,0,
2009-11-05, 01:26:04,VALID,1007.02,VALID,0,VALID,86.6362,VALID,0,VALID,23.4602,VALID,107,VALID,0,
2009-11-05, 01:27:04,VALID,1007.01,VALID,0,VALID,86.6591,VALID,0,VALID,23.4407,VALID,107,VALID,0,
2009-11-05, 01:28:04,VALID,1006.97,VALID,0,VALID,86.6743,VALID,0,VALID,23.4212,VALID,107,VALID,0,
2009-11-05, 01:29:04,VALID,1006.96,VALID,0,VALID,86.6514,VALID,0.105969,VALID,23.4,VALID,107,VALID,0,
2009-11-05, 01:30:04,VALID,1006.91,VALID,0,VALID,86.6667,VALID,0,VALID,23.4212,VALID,107,VALID,0,
2009-11-05, 01:31:04,VALID,1006.85,VALID,0,VALID,86.6591,VALID,0,VALID,23.361,VALID,107,VALID,0,
2009-11-05, 01:32:04,VALID,1006.81,VALID,0,VALID,86.6591,VALID,0,VALID,23.3823,VALID,107,VALID,0,
2009-11-05, 01:33:04,VALID,1006.74,VALID,0,VALID,86.6591,VALID,0,VALID,23.3628,VALID,107,VALID,0,
2009-11-05, 01:34:04,VALID,1006.71,VALID,0,VALID,86.6514,VALID,0,VALID,23.3433,VALID,107,VALID,0,
2009-11-05, 01:35:04,VALID,1006.66,VALID,0,VALID,86.6591,VALID,0,VALID,23.3628,VALID,107,VALID,0,
2009-11-05, 01:36:04,VALID,1006.68,VALID,0,VALID,86.6591,VALID,0,VALID,23.322,VALID,107,VALID,0,
2009-11-05, 01:37:04,VALID,1006.65,VALID,0,VALID,86.6514,VALID,0,VALID,23.3238,VALID,107,VALID,0,
2009-11-05, 01:38:04,VALID,1006.66,VALID,0,VALID,86.6591,VALID,0,VALID,23.3238,VALID,107,VALID,0,
2009-11-05, 01:39:04,VALID,1006.62,VALID,0,VALID,86.6591,VALID,0,VALID,23.3043,VALID,107,VALID,0,
2009-11-05, 01:40:04,VALID,1006.57,VALID,0,VALID,86.6438,VALID,0,VALID,23.2848,VALID,107,VALID,0,
2009-11-05, 01:41:04,VALID,1006.61,VALID,0,VALID,86.6514,VALID,0,VALID,23.2848,VALID,107,VALID,0,
2009-11-05, 01:42:04,VALID,1006.59,VALID,0,VALID,86.6514,VALID,0,VALID,23.2654,VALID,107,VALID,0,
2009-11-05, 01:43:04,VALID,1006.58,VALID,0,VALID,86.6514,VALID,0,VALID,23.2654,VALID,107,VALID,0,
2009-11-05, 01:44:04,VALID,1006.58,VALID,0,VALID,86.6591,VALID,0,VALID,23.2459,VALID,107,VALID,0,
2009-11-05, 01:45:04,VALID,1006.6,VALID,0,VALID,86.6514,VALID,0.105969,VALID,23.2459,VALID,107,VALID,0,
2009-11-05, 01:46:04,VALID,1006.58,VALID,0,VALID,86.6667,VALID,0,VALID,23.2246,VALID,107,VALID,0,
2009-11-05, 01:47:04,VALID,1006.58,VALID,0,VALID,86.6591,VALID,0,VALID,23.2459,VALID,107,VALID,0,
2009-11-05, 01:48:04,VALID,1006.6,VALID,0,VALID,86.6286,VALID,0,VALID,23.2459,VALID,107,VALID,0,
2009-11-05, 01:49:04,VALID,1006.58,VALID,0,VALID,86.6438,VALID,0,VALID,23.2459,VALID,107,VALID,0,
2009-11-05, 01:50:04,VALID,1006.59,VALID,0,VALID,86.6209,VALID,0.105969,VALID,23.2441,VALID,107,VALID,0,
2009-11-05, 01:51:04,VALID,1006.55,VALID,0,VALID,86.6209,VALID,0,VALID,23.2459,VALID,107,VALID,0,
2009-11-05, 01:52:04,VALID,1006.54,VALID,0,VALID,86.6286,VALID,0,VALID,23.2264,VALID,107,VALID,0,
2009-11-05, 01:53:04,VALID,1006.52,VALID,0,VALID,86.6362,VALID,0,VALID,23.2264,VALID,107,VALID,0,
2009-11-05, 01:54:04,VALID,1006.51,VALID,0,VALID,86.6286,VALID,0,VALID,23.2459,VALID,107,VALID,0,
2009-11-05, 01:55:04,VALID,1006.5,VALID,0,VALID,86.6057,VALID,0,VALID,23.2459,VALID,107,VALID,0,
2009-11-05, 01:56:04,VALID,1006.51,VALID,0,VALID,86.6057,VALID,0,VALID,23.2654,VALID,107,VALID,0,
2009-11-05, 01:57:04,VALID,1006.5,VALID,0,VALID,86.5676,VALID,0,VALID,23.2654,VALID,107,VALID,0,
2009-11-05, 01:58:04,VALID,1006.51,VALID,0,VALID,86.5676,VALID,0,VALID,23.2654,VALID,107,VALID,0,
2009-11-05, 01:59:04,VALID,1006.48,VALID,0,VALID,86.5904,VALID,0,VALID,23.2654,VALID,107,VALID,0,
2009-11-05, 02:00:04,VALID,1006.45,VALID,0,VALID,86.6057,VALID,0,VALID,23.2654,VALID,107,VALID,0,
2009-11-05, 02:01:04,VALID,1006.44,VALID,0,VALID,86.5981,VALID,0,VALID,23.2654,VALID,107,VALID,0,
2009-11-05, 02:02:04,VALID,1006.42,VALID,0,VALID,86.6057,VALID,0,VALID,23.2654,VALID,107,VALID,0,
2009-11-05, 02:03:04,VALID,1006.39,VALID,0,VALID,86.5904,VALID,0,VALID,23.2654,VALID,107,VALID,0,
2009-11-05, 02:04:04,VALID,1006.38,VALID,0,VALID,86.5904,VALID,0,VALID,23.2654,VALID,107,VALID,0,
2009-11-05, 02:05:04,VALID,1006.39,VALID,0,VALID,86.5904,VALID,0,VALID,23.2441,VALID,107,VALID,0,
2009-11-05, 02:06:04,VALID,1006.39,VALID,0,VALID,86.5981,VALID,0,VALID,23.2459,VALID,107,VALID,0,
2009-11-05, 02:07:04,VALID,1006.4,VALID,0,VALID,86.5904,VALID,0,VALID,23.2459,VALID,107,VALID,0,
2009-11-05, 02:08:04,VALID,1006.37,VALID,0,VALID,86.5981,VALID,0,VALID,23.2264,VALID,107,VALID,0,
2009-11-05, 02:09:04,VALID,1006.37,VALID,0,VALID,86.6057,VALID,0,VALID,23.2264,VALID,106,VALID,0,
2009-11-05, 02:10:04,VALID,1006.38,VALID,0,VALID,86.5981,VALID,0,VALID,23.2476,VALID,107,VALID,0,
2009-11-05, 02:11:04,VALID,1006.42,VALID,0,VALID,86.5828,VALID,0,VALID,23.2282,VALID,107,VALID,0,
2009-11-05, 02:12:04,VALID,1006.41,VALID,0,VALID,86.6209,VALID,0,VALID,23.2069,VALID,107,VALID,0,
2009-11-05, 02:13:04,VALID,1006.44,VALID,0,VALID,86.6133,VALID,0,VALID,23.2069,VALID,107,VALID,0,
2009-11-05, 02:14:04,VALID,1006.46,VALID,0,VALID,86.6133,VALID,0,VALID,23.1857,VALID,107,VALID,0,
2009-11-05, 02:15:04,VALID,1006.45,VALID,0,VALID,86.6209,VALID,0,VALID,23.1874,VALID,107,VALID,0,
2009-11-05, 02:16:04,VALID,1006.45,VALID,0,VALID,86.6133,VALID,0,VALID,23.1679,VALID,107,VALID,0,
2009-11-05, 02:17:04,VALID,1006.42,VALID,0,VALID,86.6057,VALID,0,VALID,23.1874,VALID,107,VALID,0,
2009-11-05, 02:18:04,VALID,1006.38,VALID,0,VALID,86.6133,VALID,0,VALID,23.1679,VALID,107,VALID,0,
2009-11-05, 02:19:04,VALID,1006.33,VALID,0,VALID,86.6057,VALID,0,VALID,23.1679,VALID,107,VALID,0,
2009-11-05, 02:20:04,VALID,1006.32,VALID,0,VALID,86.6057,VALID,0,VALID,23.1679,VALID,107,VALID,0,
2009-11-05, 02:21:04,VALID,1006.31,VALID,0,VALID,86.6133,VALID,0,VALID,23.1679,VALID,107,VALID,0,
2009-11-05, 02:22:04,VALID,1006.3,VALID,0,VALID,86.6057,VALID,0,VALID,23.1485,VALID,107,VALID,0,
2009-11-05, 02:23:04,VALID,1006.32,VALID,0,VALID,86.5904,VALID,0,VALID,23.1485,VALID,107,VALID,0,
2009-11-05, 02:24:04,VALID,1006.29,VALID,0,VALID,86.5828,VALID,0,VALID,23.1679,VALID,107,VALID,0,
2009-11-05, 02:25:04,VALID,1006.26,VALID,0,VALID,86.5676,VALID,0,VALID,23.1679,VALID,107,VALID,0,
2009-11-05, 02:26:04,VALID,1006.26,VALID,0,VALID,86.5752,VALID,0,VALID,23.1874,VALID,107,VALID,0,
2009-11-05, 02:27:04,VALID,1006.22,VALID,0,VALID,86.5752,VALID,0,VALID,23.1874,VALID,107,VALID,0,
2009-11-05, 02:28:04,VALID,1006.18,VALID,0,VALID,86.5752,VALID,0,VALID,23.1679,VALID,107,VALID,0,
2009-11-05, 02:29:04,VALID,1006.17,VALID,0,VALID,86.5752,VALID,0,VALID,23.1874,VALID,107,VALID,0,
2009-11-05, 02:30:04,VALID,1006.17,VALID,0,VALID,86.5828,VALID,0,VALID,23.1679,VALID,107,VALID,0,
2009-11-05, 02:31:04,VALID,1006.15,VALID,0,VALID,86.5904,VALID,0,VALID,23.1485,VALID,107,VALID,0,
2009-11-05, 02:32:04,VALID,1006.14,VALID,0,VALID,86.6057,VALID,0,VALID,23.1485,VALID,107,VALID,0,
2009-11-05, 02:33:04,VALID,1006.12,VALID,0,VALID,86.5981,VALID,0,VALID,23.1485,VALID,107,VALID,0,
2009-11-05, 02:34:04,VALID,1006.13,VALID,0,VALID,86.5904,VALID,0,VALID,23.1485,VALID,107,VALID,0,
2009-11-05, 02:35:04,VALID,1006.09,VALID,0,VALID,86.5828,VALID,0,VALID,23.1485,VALID,107,VALID,0,
2009-11-05, 02:36:04,VALID,1006.1,VALID,0,VALID,86.5676,VALID,0,VALID,23.1485,VALID,107,VALID,0,
2009-11-05, 02:37:04,VALID,1006.11,VALID,0,VALID,86.5599,VALID,0,VALID,23.1485,VALID,107,VALID,0,
2009-11-05, 02:38:04,VALID,1006.15,VALID,0,VALID,86.5599,VALID,0,VALID,23.1679,VALID,107,VALID,0,
2009-11-05, 02:39:04,VALID,1006.22,VALID,0,VALID,86.5752,VALID,0,VALID,23.1485,VALID,107,VALID,0,
2009-11-05, 02:40:04,VALID,1006.22,VALID,0,VALID,86.5599,VALID,0,VALID,23.1485,VALID,107,VALID,0,
2009-11-05, 02:41:04,VALID,1006.25,VALID,0,VALID,86.5676,VALID,0,VALID,23.1485,VALID,107,VALID,0,
2009-11-05, 02:42:04,VALID,1006.28,VALID,0,VALID,86.5828,VALID,0,VALID,23.1485,VALID,107,VALID,0,
2009-11-05, 02:43:04,VALID,1006.28,VALID,0,VALID,86.5752,VALID,0,VALID,23.129,VALID,107,VALID,0,
2009-11-05, 02:44:04,VALID,1006.29,VALID,0,VALID,86.5828,VALID,0,VALID,23.129,VALID,107,VALID,0,
2009-11-05, 02:45:04,VALID,1006.32,VALID,0,VALID,86.5523,VALID,0.105969,VALID,23.1272,VALID,107,VALID,0,
2009-11-05, 02:46:04,VALID,1006.31,VALID,0,VALID,86.5447,VALID,0,VALID,23.1485,VALID,107,VALID,0,
2009-11-05, 02:47:04,VALID,1006.3,VALID,0,VALID,86.5447,VALID,0,VALID,23.1485,VALID,107,VALID,0,
2009-11-05, 02:48:04,VALID,1006.28,VALID,0,VALID,86.5523,VALID,0.105969,VALID,23.1272,VALID,107,VALID,0,
2009-11-05, 02:49:04,VALID,1006.29,VALID,0,VALID,86.5599,VALID,0,VALID,23.129,VALID,107,VALID,0,
2009-11-05, 02:50:04,VALID,1006.3,VALID,0,VALID,86.5752,VALID,0,VALID,23.1095,VALID,107,VALID,0,
2009-11-05, 02:51:04,VALID,1006.29,VALID,0,VALID,86.5752,VALID,0,VALID,23.1095,VALID,107,VALID,0,
2009-11-05, 02:52:04,VALID,1006.31,VALID,0,VALID,86.6057,VALID,0,VALID,23.09,VALID,107,VALID,0,
2009-11-05, 02:53:04,VALID,1006.35,VALID,0,VALID,86.5752,VALID,0,VALID,23.09,VALID,107,VALID,0,
2009-11-05, 02:54:04,VALID,1006.39,VALID,0,VALID,86.5828,VALID,0.105969,VALID,23.09,VALID,107,VALID,0,
2009-11-05, 02:55:04,VALID,1006.41,VALID,0,VALID,86.5599,VALID,0.105969,VALID,23.0883,VALID,107,VALID,0,
2009-11-05, 02:56:04,VALID,1006.43,VALID,0,VALID,86.5523,VALID,0,VALID,23.1077,VALID,107,VALID,0,
2009-11-05, 02:57:04,VALID,1006.44,VALID,0,VALID,86.537,VALID,0,VALID,23.1077,VALID,107,VALID,0,
2009-11-05, 02:58:04,VALID,1006.43,VALID,0,VALID,86.5447,VALID,0,VALID,23.0883,VALID,107,VALID,0,
2009-11-05, 02:59:04,VALID,1006.45,VALID,0,VALID,86.5523,VALID,0,VALID,23.0883,VALID,107,VALID,0,
2009-11-05, 03:00:04,VALID,1006.44,VALID,0,VALID,86.5752,VALID,0,VALID,23.0883,VALID,107,VALID,0,
2009-11-05, 03:01:04,VALID,1006.45,VALID,0,VALID,86.5752,VALID,0.105969,VALID,23.0883,VALID,107,VALID,0,
2009-11-05, 03:02:04,VALID,1006.42,VALID,0,VALID,86.5752,VALID,0.105969,VALID,23.0688,VALID,107,VALID,0,
2009-11-05, 03:03:04,VALID,1006.46,VALID,0,VALID,86.5752,VALID,0.105969,VALID,23.0688,VALID,107,VALID,0,
2009-11-05, 03:04:04,VALID,1006.45,VALID,0,VALID,86.5828,VALID,0,VALID,23.09,VALID,107,VALID,0,
2009-11-05, 03:05:04,VALID,1006.44,VALID,0,VALID,86.5904,VALID,0.105969,VALID,23.0511,VALID,107,VALID,0,
2009-11-05, 03:06:04,VALID,1006.48,VALID,0,VALID,86.6133,VALID,0.105969,VALID,23.0103,VALID,107,VALID,0,
2009-11-05, 03:07:04,VALID,1006.46,VALID,0,VALID,86.6057,VALID,0.105969,VALID,23.0103,VALID,107,VALID,0,
2009-11-05, 03:08:04,VALID,1006.48,VALID,0,VALID,86.5981,VALID,0,VALID,22.9909,VALID,107,VALID,0,
2009-11-05, 03:09:04,VALID,1006.51,VALID,0,VALID,86.5599,VALID,0.105969,VALID,23.0316,VALID,107,VALID,0,
2009-11-05, 03:10:04,VALID,1006.48,VALID,0,VALID,86.537,VALID,0,VALID,23.0103,VALID,107,VALID,0,
2009-11-05, 03:11:04,VALID,1006.5,VALID,0,VALID,86.537,VALID,0.105969,VALID,23.0103,VALID,107,VALID,0,
2009-11-05, 03:12:04,VALID,1006.46,VALID,0,VALID,86.5676,VALID,0.105969,VALID,23.0298,VALID,107,VALID,0,
2009-11-05, 03:13:04,VALID,1006.46,VALID,0,VALID,86.5904,VALID,0.105969,VALID,23.0103,VALID,107,VALID,0,
2009-11-05, 03:14:04,VALID,1006.44,VALID,0,VALID,86.5599,VALID,0.105969,VALID,23.0316,VALID,107,VALID,0,
2009-11-05, 03:15:04,VALID,1006.46,VALID,0,VALID,86.5065,VALID,0,VALID,23.0705,VALID,107,VALID,0,
2009-11-05, 03:16:04,VALID,1006.47,VALID,0,VALID,86.4837,VALID,0,VALID,23.09,VALID,107,VALID,0,
2009-11-05, 03:17:04,VALID,1006.48,VALID,0,VALID,86.4913,VALID,0.105969,VALID,23.1095,VALID,107,VALID,0,
2009-11-05, 03:18:04,VALID,1006.48,VALID,0,VALID,86.5218,VALID,0,VALID,23.09,VALID,107,VALID,0,
2009-11-05, 03:19:04,VALID,1006.5,VALID,0,VALID,86.5065,VALID,0.105969,VALID,23.0883,VALID,107,VALID,0,
2009-11-05, 03:20:04,VALID,1006.51,VALID,0,VALID,86.4989,VALID,0,VALID,23.1095,VALID,107,VALID,0,
2009-11-05, 03:21:04,VALID,1006.5,VALID,0,VALID,86.4913,VALID,0.105969,VALID,23.129,VALID,107,VALID,0,
2009-11-05, 03:22:04,VALID,1006.49,VALID,0,VALID,86.5294,VALID,0.105969,VALID,23.09,VALID,107,VALID,0,
2009-11-05, 03:23:04,VALID,1006.46,VALID,0,VALID,86.5676,VALID,0,VALID,23.0705,VALID,107,VALID,0,
2009-11-05, 03:24:04,VALID,1006.43,VALID,0,VALID,86.5828,VALID,0,VALID,23.0493,VALID,107,VALID,0,
2009-11-05, 03:25:04,VALID,1006.4,VALID,0,VALID,86.5904,VALID,0.105969,VALID,23.0298,VALID,107,VALID,0,
2009-11-05, 03:26:04,VALID,1006.39,VALID,0,VALID,86.5828,VALID,0.105969,VALID,23.0316,VALID,107,VALID,0,
2009-11-05, 03:27:04,VALID,1006.39,VALID,0,VALID,86.5981,VALID,0,VALID,23.0103,VALID,107,VALID,0,
2009-11-05, 03:28:04,VALID,1006.39,VALID,0,VALID,86.5828,VALID,0.105969,VALID,23.0511,VALID,107,VALID,0,
2009-11-05, 03:29:04,VALID,1006.41,VALID,0,VALID,86.5828,VALID,0,VALID,23.0298,VALID,107,VALID,0,
2009-11-05, 03:30:04,VALID,1006.44,VALID,0,VALID,86.5981,VALID,0.105969,VALID,23.0103,VALID,107,VALID,0,
2009-11-05, 03:31:04,VALID,1006.43,VALID,0,VALID,86.6209,VALID,0,VALID,22.9714,VALID,107,VALID,0,
2009-11-05, 03:32:04,VALID,1006.42,VALID,0,VALID,86.6362,VALID,0,VALID,22.9926,VALID,107,VALID,0,
2009-11-05, 03:33:04,VALID,1006.44,VALID,0,VALID,86.6057,VALID,0,VALID,23.0121,VALID,107,VALID,0,
2009-11-05, 03:34:04,VALID,1006.45,VALID,0,VALID,86.6209,VALID,0.105969,VALID,22.9519,VALID,107,VALID,0,
2009-11-05, 03:35:04,VALID,1006.43,VALID,0,VALID,86.6667,VALID,0,VALID,22.9536,VALID,107,VALID,0,
2009-11-05, 03:36:04,VALID,1006.45,VALID,0,VALID,86.6743,VALID,0,VALID,22.9129,VALID,107,VALID,0,
2009-11-05, 03:37:04,VALID,1006.42,VALID,0,VALID,86.6743,VALID,0,VALID,22.9536,VALID,107,VALID,0,
2009-11-05, 03:38:04,VALID,1006.42,VALID,0,VALID,86.6362,VALID,0.105969,VALID,22.9519,VALID,107,VALID,0,
2009-11-05, 03:39:04,VALID,1006.44,VALID,0,VALID,86.6133,VALID,0,VALID,22.9731,VALID,107,VALID,0,
2009-11-05, 03:40:04,VALID,1006.42,VALID,0,VALID,86.6057,VALID,0,VALID,22.9536,VALID,107,VALID,0,
2009-11-05, 03:41:04,VALID,1006.43,VALID,0,VALID,86.5676,VALID,0.105969,VALID,22.9714,VALID,107,VALID,0,
2009-11-05, 03:42:04,VALID,1006.44,VALID,0,VALID,86.5676,VALID,0,VALID,22.9714,VALID,107,VALID,0,
2009-11-05, 03:43:04,VALID,1006.42,VALID,0,VALID,86.5523,VALID,0.105969,VALID,23.0316,VALID,107,VALID,0,
2009-11-05, 03:44:04,VALID,1006.42,VALID,0,VALID,86.5676,VALID,0.105969,VALID,23.0298,VALID,107,VALID,0,
2009-11-05, 03:45:04,VALID,1006.4,VALID,0,VALID,86.5523,VALID,0.105969,VALID,23.0298,VALID,106,VALID,0,
2009-11-05, 03:46:04,VALID,1006.41,VALID,0,VALID,86.5523,VALID,0,VALID,23.0511,VALID,107,VALID,0,
2009-11-05, 03:47:04,VALID,1006.42,VALID,0,VALID,86.5599,VALID,0,VALID,23.0298,VALID,107,VALID,0,
2009-11-05, 03:48:04,VALID,1006.44,VALID,0,VALID,86.5752,VALID,0.105969,VALID,23.0298,VALID,106,VALID,0,
2009-11-05, 03:49:04,VALID,1006.4,VALID,0,VALID,86.5752,VALID,0.105969,VALID,23.0298,VALID,107,VALID,0,
2009-11-05, 03:50:04,VALID,1006.4,VALID,0,VALID,86.5752,VALID,0,VALID,23.0511,VALID,107,VALID,0,
2009-11-05, 03:51:04,VALID,1006.39,VALID,0,VALID,86.5828,VALID,0,VALID,23.0511,VALID,107,VALID,0,
2009-11-05, 03:52:04,VALID,1006.38,VALID,0,VALID,86.5599,VALID,0.105969,VALID,23.0511,VALID,107,VALID,0,
2009-11-05, 03:53:04,VALID,1006.39,VALID,0,VALID,86.5599,VALID,0.105969,VALID,23.0511,VALID,107,VALID,0,
2009-11-05, 03:54:04,VALID,1006.42,VALID,0,VALID,86.5981,VALID,0.105969,VALID,23.0103,VALID,107,VALID,0,